[[{"header":{"parameterUnit":"m.s-1","parameterCategory":1,"la1":30.2991,"la2":30.254,"lo1":-89.0895,"lo2":-89.0444,"dy":0.0017,"dx":0.0017,"nx":28,"ny":28,"refTime":"2025-07-12T03:00:00:Z","depth":0,"parameterNumber":2,"parameterNumberName":"U-component_of_WINDS"},"data":[0,0,0,0,0,0,0,0,0,0,0,0,0,0,0,0,0,0,0,0,0,0,0,0,0,0,0,0,0,0,0,0,0,0,0,0,0,0,0,0,0,0,0,0,0,0,0,0,0,0,0,0,0,0,0,0,0,0,1.2467,1.2468,0,1.2589,1.259,1.2592,1.2641,1.264,1.264,1.264,1.2769,1.2773,1.2777,0,0,0,0,0,0,0,0,0,0,0,0,0,1.228,1.2283,1.2467,1.2468,1.247,1.2589,1.259,1.2592,1.2641,1.264,1.264,1.264,1.2768,1.2772,1.2777,0,0,0,0,0,0,0,0,0,0,0,0,0,1.2377,1.2284,1.2466,1.2508,1.2513,1.2588,1.259,1.2592,1.2641,1.264,1.264,1.264,1.2767,1.2772,1.2778,1.2821,0,0,1.2795,1.2797,0,0,0,0,0,0,0,0,1.2372,1.2384,1.2501,1.2505,1.2511,1.2599,1.2572,1.2669,1.2641,1.2593,1.264,1.2639,1.2713,1.2723,1.2747,1.2827,1.2833,1.2795,1.2799,1.2801,1.2802,0,0,0,0,0,0,0,1.2365,1.2379,1.2515,1.2502,1.2509,1.2522,1.2536,1.2591,1.2654,1.2597,1.2601,1.2614,1.2716,1.2742,1.2751,1.2835,1.2795,1.28,1.2803,1.2806,1.2957,1.2958,0,0,0,0,0,0,1.2351,1.2373,1.2511,1.2519,1.2439,1.2526,1.2541,1.2571,1.2654,1.2666,1.2614,1.2616,1.2732,1.2744,1.2755,1.2812,1.2801,1.2806,1.2809,1.2957,1.2957,1.2958,0,0,0,0,0,0,1.2347,1.2363,1.2506,1.2447,1.2466,1.253,1.2563,1.2574,1.26,1.2667,1.2679,1.2629,1.2733,1.2748,1.2804,1.2817,1.2809,1.2814,1.2956,1.2957,1.2958,1.2926,0,0,0,0,0,0,1.2341,1.2361,1.2377,1.2447,1.2469,1.2552,1.2564,1.2577,1.2609,1.2612,1.2683,1.2695,1.2733,1.2796,1.281,1.2825,1.2818,1.2955,1.2956,1.2958,1.2926,1.2926,1.2925,0,0,0,0,0,1.2334,1.2364,1.2377,1.2394,1.2491,1.2552,1.2565,1.2607,1.2609,1.2627,1.267,1.2693,1.2813,1.2801,1.2817,1.2834,1.2954,1.2956,1.2957,1.2926,1.2926,1.2925,0,0,0,0,0,0,1.2295,1.2374,1.239,1.2443,1.249,1.256,1.2584,1.2606,1.2655,1.2656,1.2708,1.2723,1.2776,1.2811,1.2796,1.2881,1.2886,1.2891,1.2856,1.2856,1.2856,1.2847,1.2823,0,0,0,0,0,1.2292,1.2334,1.2401,1.2442,1.2465,1.252,1.2548,1.2577,1.2629,1.2649,1.2697,1.2748,1.2797,1.2829,1.2878,1.2931,1.2948,1.2951,1.2951,1.295,1.2954,1.2985,1.2987,1.2963,1.2963,1.2963,0,0,1.2288,1.2336,1.236,1.2435,1.2475,1.2519,1.2537,1.2582,1.2615,1.2657,1.2713,1.275,1.281,1.2865,1.2892,1.2896,1.2964,1.2952,1.2951,1.2955,1.2987,1.2989,1.2991,1.2964,1.2964,1.2964,0,0,1.2301,1.2342,1.238,1.2419,1.2479,1.2516,1.2525,1.2592,1.2618,1.2674,1.2706,1.2748,1.2832,1.2873,1.2905,1.2935,1.2958,1.295,1.2948,1.2978,1.298,1.2982,1.2993,1.2996,1.2953,1.2953,1.2953,0,1.2288,1.2354,1.2397,1.2441,1.2473,1.2511,1.2551,1.2588,1.2662,1.2684,1.2687,1.2794,1.2837,1.2902,1.2909,1.2934,1.2947,1.2942,1.2976,1.2978,1.2981,1.2992,1.2996,1.2952,1.2952,1.2952,1.2952,0,1.2335,1.2381,1.2404,1.2473,1.2509,1.255,1.26,1.2632,1.2657,1.2693,1.2751,1.2804,1.2865,1.2883,1.2909,1.2952,1.2953,1.2965,1.2971,1.2981,1.2992,1.2997,1.295,1.295,1.2951,1.2951,0,0,1.2328,1.2419,1.2428,1.2459,1.2528,1.2565,1.2609,1.2667,1.2693,1.2742,1.2781,1.2851,1.2863,1.2899,1.293,1.2956,1.2977,1.2965,1.2968,1.2966,1.3029,1.3019,1.3023,1.2992,1.2993,1.2994,1.3024,0,1.2351,1.243,1.247,1.2531,1.2574,1.2611,1.2649,1.2697,1.2732,1.2775,1.2815,1.2863,1.2875,1.2897,1.2924,1.2968,1.299,1.2967,1.303,1.3031,1.3013,1.3029,1.302,1.3045,1.3029,1.3029,1.303,0,1.2389,1.2437,1.2502,1.2566,1.2586,1.2619,1.2676,1.2716,1.277,1.2795,1.2835,1.2865,1.2914,1.2915,1.2984,1.2967,1.2996,1.3021,1.3023,1.3031,1.3031,1.3038,1.3055,1.3059,1.3037,1.3037,1.3036,0,1.2378,1.2458,1.2508,1.2534,1.261,1.2633,1.2666,1.272,1.2752,1.2802,1.2824,1.288,1.291,1.2953,1.2998,1.2995,1.3062,1.3068,1.3085,1.3084,1.3098,1.3096,1.3119,1.3115,1.3115,1.3115,1.3115,0,1.24,1.2438,1.2504,1.2534,1.2579,1.2625,1.2669,1.2705,1.2753,1.2792,1.2828,1.2865,1.2921,1.2965,1.3001,1.3053,1.3066,1.3088,1.3097,1.3085,1.3082,1.3104,1.3104,1.3116,1.3116,1.3116,1.3115,0,1.2394,1.244,1.2496,1.2563,1.2581,1.2611,1.2669,1.2701,1.2738,1.2787,1.2802,1.286,1.2914,1.2963,1.3034,1.3058,1.3111,1.3122,1.3092,1.3097,1.3111,1.3109,1.315,1.3158,1.3147,1.3147,1.3147,0,1.2406,1.2436,1.2506,1.2534,1.2566,1.2611,1.2644,1.2691,1.2724,1.2789,1.2813,1.2869,1.2916,1.3,1.305,1.3105,1.3118,1.3129,1.3127,1.3114,1.3119,1.3116,1.312,1.3128,1.3128,1.3128,1.3128,0,1.2421,1.2442,1.2487,1.254,1.2578,1.2622,1.2668,1.269,1.2746,1.2781,1.2836,1.2872,1.2944,1.3,1.306,1.3096,1.3122,1.3128,1.3135,1.3123,1.3104,1.3115,1.3091,1.3127,1.3127,1.3127,1.3127,1.3127,1.2425,1.2453,1.2507,1.2556,1.2595,1.2637,1.267,1.2711,1.2757,1.2818,1.2844,1.2899,1.2954,1.3038,1.3073,1.3118,1.3124,1.3133,1.3136,1.3138,1.3136,1.3096,1.313,1.313,1.313,1.313,1.313,0,1.2442,1.2478,1.2523,1.2585,1.2624,1.2643,1.2695,1.2727,1.2775,1.2823,1.2868,1.2931,1.2985,1.3038,1.3096,1.3121,1.3134,1.3135,1.3134,1.3142,1.3128,1.3116,1.3123,1.3123,1.3123,1.3123,1.3123,1.3123,1.2455,1.2505,1.2532,1.2602,1.2639,1.2692,1.272,1.2759,1.2798,1.2866,1.291,1.2944,1.2996,1.3057,1.3107,1.3122,1.3141,1.3138,1.3156,1.3142,1.3142,1.3143,1.3132,1.3142,1.3142,1.3167,1.3167,1.3167]},{"header":{"parameterUnit":"m.s-1","parameterCategory":1,"la1":30.2991,"la2":30.254,"lo1":-89.0895,"lo2":-89.0444,"dy":0.0017,"dx":0.0017,"nx":28,"ny":28,"refTime":"2025-07-12T03:00:00:Z","depth":0,"parameterNumber":3,"parameterNumberName":"V-component_of_WINDS"},"data":[0,0,0,0,0,0,0,0,0,0,0,0,0,0,0,0,0,0,0,0,0,0,0,0,0,0,0,0,0,0,0,0,0,0,0,0,0,0,0,0,0,0,0,0,0,0,0,0,0,0,0,0,0,0,0,0,0,0,1.5748,1.5747,0,1.5686,1.5685,1.5685,1.5675,1.5675,1.5676,1.5676,1.5608,1.5605,1.5603,0,0,0,0,0,0,0,0,0,0,0,0,0,1.5852,1.585,1.5748,1.5747,1.5747,1.5686,1.5685,1.5684,1.5675,1.5675,1.5676,1.5677,1.5608,1.5606,1.5603,0,0,0,0,0,0,0,0,0,0,0,0,0,1.58,1.5849,1.5748,1.5734,1.5733,1.5686,1.5685,1.5684,1.5674,1.5675,1.5676,1.5677,1.5609,1.5606,1.5602,1.5564,0,0,1.5592,1.559,0,0,0,0,0,0,0,0,1.5803,1.5796,1.5737,1.5735,1.5733,1.5689,1.5697,1.5644,1.5674,1.5696,1.5676,1.5677,1.5634,1.5628,1.5614,1.556,1.5558,1.5591,1.5589,1.5588,1.5587,0,0,0,0,0,0,0,1.5806,1.5799,1.5723,1.5736,1.5734,1.5729,1.5723,1.5686,1.5661,1.5694,1.5694,1.5687,1.5633,1.5618,1.5613,1.5557,1.5591,1.5588,1.5586,1.5585,1.5464,1.5463,0,0,0,0,0,0,1.5813,1.5802,1.5725,1.5721,1.5771,1.5727,1.572,1.5702,1.5661,1.5656,1.5686,1.5686,1.5624,1.5617,1.561,1.556,1.5588,1.5584,1.5582,1.5465,1.5464,1.5463,0,0,0,0,0,0,1.5816,1.5807,1.5728,1.5761,1.5751,1.5724,1.5705,1.5701,1.5686,1.5655,1.565,1.5676,1.5624,1.5615,1.5575,1.5558,1.5583,1.5579,1.5466,1.5465,1.5463,1.5461,0,0,0,0,0,0,1.5819,1.5808,1.5794,1.5761,1.5749,1.5695,1.5704,1.5699,1.568,1.568,1.5644,1.5639,1.5624,1.558,1.5571,1.5553,1.5577,1.5468,1.5466,1.5464,1.5462,1.5459,1.5457,0,0,0,0,0,1.5822,1.5795,1.5794,1.5784,1.5732,1.5695,1.5688,1.5672,1.5679,1.5664,1.5644,1.564,1.5561,1.5576,1.5566,1.5547,1.5469,1.5466,1.5464,1.5463,1.546,1.5457,0,0,0,0,0,0,1.5826,1.5791,1.5788,1.5751,1.5726,1.5693,1.5674,1.5669,1.5641,1.5642,1.5622,1.5614,1.5574,1.5557,1.5574,1.5505,1.5515,1.5511,1.5518,1.5515,1.5512,1.5516,1.5574,0,0,0,0,0,1.5822,1.5797,1.5767,1.5736,1.5724,1.5701,1.5684,1.5674,1.5647,1.5636,1.5613,1.5585,1.5554,1.5533,1.5503,1.546,1.545,1.5441,1.5439,1.5436,1.5432,1.5405,1.5399,1.5455,1.5455,1.5455,0,0,1.5815,1.5792,1.5777,1.5736,1.5716,1.5687,1.5692,1.5662,1.564,1.5631,1.5591,1.5573,1.5541,1.5498,1.5478,1.5482,1.5415,1.5433,1.5432,1.5428,1.5401,1.5396,1.5392,1.5453,1.5453,1.5454,0,0,1.5785,1.5767,1.5738,1.5718,1.5687,1.5672,1.5665,1.5633,1.5621,1.5581,1.5573,1.5545,1.5492,1.5469,1.545,1.5409,1.5403,1.54,1.5385,1.5358,1.5354,1.535,1.5333,1.5327,1.5396,1.5396,1.5396,0,1.5779,1.5737,1.5724,1.5693,1.5674,1.5666,1.5635,1.5615,1.5576,1.5562,1.5567,1.5499,1.5477,1.5427,1.5418,1.5403,1.5392,1.5403,1.5356,1.5352,1.5348,1.5331,1.5325,1.5396,1.5396,1.5396,1.5396,0,1.5729,1.57,1.568,1.5643,1.5622,1.5592,1.5571,1.5551,1.5543,1.5526,1.5484,1.5457,1.542,1.5407,1.5399,1.5355,1.5358,1.5361,1.537,1.5342,1.5326,1.532,1.5395,1.5395,1.5395,1.5396,0,0,1.57,1.5656,1.5648,1.563,1.5595,1.5571,1.5539,1.5504,1.5486,1.5458,1.5429,1.5384,1.5385,1.5363,1.5352,1.5329,1.5295,1.5333,1.5332,1.5324,1.5242,1.5239,1.5232,1.5292,1.5291,1.529,1.5243,0,1.5665,1.5609,1.5595,1.5547,1.5518,1.5509,1.5481,1.5455,1.5438,1.5409,1.539,1.5357,1.5363,1.5349,1.5326,1.5304,1.5278,1.5308,1.5261,1.526,1.5267,1.5224,1.5221,1.5179,1.5237,1.5236,1.5235,0,1.5616,1.5589,1.5538,1.5504,1.5491,1.5467,1.5432,1.5406,1.5375,1.5364,1.5339,1.533,1.5293,1.5305,1.5253,1.5273,1.5253,1.5239,1.5237,1.523,1.5244,1.5213,1.5165,1.5158,1.5226,1.5227,1.5227,0,1.5597,1.5547,1.5509,1.5494,1.5455,1.5437,1.542,1.539,1.5369,1.5338,1.5323,1.5288,1.5268,1.524,1.522,1.5232,1.5168,1.5179,1.5155,1.5155,1.514,1.5141,1.5086,1.5132,1.5132,1.5132,1.5132,0,1.5558,1.5526,1.55,1.5476,1.5439,1.5423,1.5386,1.5368,1.5341,1.5312,1.5302,1.5274,1.5251,1.5219,1.5203,1.516,1.5152,1.514,1.5135,1.5139,1.514,1.5124,1.5125,1.513,1.5131,1.5131,1.5131,0,1.5529,1.5511,1.5469,1.5435,1.5426,1.54,1.5369,1.5345,1.5328,1.5291,1.5281,1.5253,1.5215,1.5193,1.5145,1.5133,1.5085,1.5083,1.5095,1.5093,1.5069,1.507,1.4999,1.4987,1.5044,1.5043,1.5043,0,1.5505,1.548,1.5444,1.5424,1.5406,1.5375,1.5354,1.5335,1.5313,1.5275,1.5254,1.5216,1.5184,1.5123,1.5097,1.5059,1.5054,1.5032,1.5048,1.5052,1.505,1.5051,1.5047,1.5029,1.5028,1.5028,1.5027,0,1.5461,1.5453,1.5423,1.539,1.5364,1.5337,1.5309,1.5293,1.5269,1.5244,1.5206,1.5181,1.5132,1.5092,1.5052,1.5031,1.5024,1.5023,1.5014,1.5017,1.5024,1.5017,1.5085,1.5024,1.5024,1.5024,1.5025,1.5025,1.5432,1.5409,1.5379,1.5345,1.5323,1.5296,1.5271,1.5251,1.5219,1.5178,1.5169,1.5127,1.5094,1.504,1.5018,1.4983,1.4987,1.4976,1.4972,1.4969,1.4967,1.5032,1.4976,1.4976,1.4976,1.4976,1.4976,0,1.5386,1.5366,1.5336,1.5297,1.527,1.5268,1.5236,1.5213,1.5177,1.5148,1.5117,1.5071,1.5032,1.5003,1.4962,1.494,1.4935,1.493,1.493,1.4924,1.4968,1.4977,1.4934,1.4934,1.4934,1.4934,1.4934,1.4934,1.5359,1.5318,1.5306,1.5253,1.5233,1.5193,1.5175,1.5149,1.5126,1.5075,1.5044,1.5026,1.4995,1.4952,1.4916,1.4908,1.4892,1.4886,1.4877,1.4917,1.4922,1.4926,1.4935,1.4884,1.4884,1.4837,1.4836,1.4836]}]]